Location: Unspecified
(0.0000°N, 0.0000°E)
Time: 11:47:35
(UTC+02:00)

NATO 3D Rocket - Visible Passes

Search period start: 21 April 2015 00:00
Search period end: 01 May 2015 00:00
Orbit: 670 x 2297 km, 21.5° (Epoch: 19 April)

Date Brightness Start Highest point End Pass type
(mag) Time Alt. Az. Time Alt. Az. Time Alt. Az.
21 Apr 6.0 05:47:55 30° SSW 05:50:35 33° S 05:58:24 10° ESE visible
21 Apr 5.2 20:13:13 10° WNW 20:21:45 82° NNE 20:34:11 10° ESE visible
21 Apr 5.8 22:17:16 10° W 22:27:47 53° SSW 22:30:03 49° S visible
22 Apr 7.4 00:24:01 10° WSW 00:25:34 14° WSW 00:25:34 14° WSW visible
22 Apr 6.4 04:54:18 29° SSE 04:54:18 29° SSE 05:00:46 10° ESE visible
22 Apr 5.3 06:49:50 16° SW 06:58:23 51° SSE 07:05:49 10° E visible
22 Apr 5.5 21:19:46 10° W 21:29:08 62° SSW 21:36:24 29° SE visible
22 Apr 6.6 23:25:24 10° WSW 23:31:55 31° SW 23:31:55 31° SW visible
23 Apr 7.1 04:00:40 16° SE 04:00:40 16° SE 04:02:45 10° ESE visible
23 Apr 5.7 05:56:12 34° SSW 06:00:12 45° SSE 06:08:38 10° E visible
23 Apr 5.2 20:22:40 10° WNW 20:30:53 73° SSW 20:42:44 11° ESE visible
23 Apr 6.1 22:27:17 10° W 22:37:11 41° SSW 22:38:15 40° S visible
24 Apr 6.0 05:02:35 40° SSE 05:02:35 40° SSE 05:11:06 10° E visible
24 Apr 5.1 06:58:07 16° WSW 07:07:44 73° SSE 07:15:35 10° ENE visible
24 Apr 5.8 21:29:39 10° W 21:38:30 46° SSW 21:44:34 28° SE visible
24 Apr 6.9 23:35:44 10° WSW 23:40:06 22° SW 23:40:06 22° SW visible
25 Apr 6.8 04:08:57 24° ESE 04:08:57 24° ESE 04:13:07 10° ESE visible
25 Apr 5.4 06:04:29 37° SW 06:09:35 61° SSE 06:18:33 10° E visible
25 Apr 5.5 20:32:24 10° W 20:40:13 52° SSW 20:50:52 12° SE visible
25 Apr 6.3 22:37:35 10° WSW 22:46:24 32° SSW 22:46:24 32° SSW visible
26 Apr 5.7 05:10:50 52° SSE 05:11:04 52° SSE 05:21:09 10° E visible
26 Apr 5.1 07:06:23 14° WSW 07:16:54 82° NNW 07:25:02 10° ENE visible
26 Apr 6.1 21:39:52 10° WSW 21:48:05 34° S 21:52:40 26° SSE visible
26 Apr 7.1 23:46:05 10° SW 23:48:12 16° SW 23:48:12 16° SW visible
27 Apr 6.5 04:17:11 33° ESE 04:17:11 33° ESE 04:23:15 10° E visible
27 Apr 5.2 06:12:43 37° WSW 06:18:46 82° SSE 06:28:08 10° ENE visible
27 Apr 5.8 20:42:29 10° W 20:49:45 37° SSW 20:58:56 12° SE visible
27 Apr 6.5 22:48:02 10° WSW 22:54:28 26° SSW 22:54:28 26° SSW visible
28 Apr 7.3 03:23:30 14° ESE 03:23:30 14° ESE 03:24:51 10° E visible
28 Apr 5.5 05:19:02 66° S 05:20:16 69° SSE 05:30:51 10° ENE visible
28 Apr 5.4 07:14:34 12° WSW 07:25:56 60° NNW 07:34:15 10° NE visible
28 Apr 6.3 21:50:20 10° WSW 21:57:51 27° S 22:00:43 24° SSE visible
28 Apr 7.3 23:56:13 10° SW 23:56:14 10° SW 23:56:14 10° SW visible
29 Apr 6.1 04:25:20 46° ESE 04:25:20 46° ESE 04:33:06 10° E visible
29 Apr 5.3 06:20:52 33° WSW 06:27:47 76° NNW 06:37:25 10° ENE visible
29 Apr 6.0 20:52:55 10° WSW 20:59:30 28° S 21:06:58 13° SE visible
29 Apr 6.7 22:58:25 10° SW 23:02:29 20° SSW 23:02:29 20° SSW visible
30 Apr 7.1 03:31:36 21° E 03:31:36 21° E 03:34:49 10° E visible
30 Apr 5.4 05:27:08 70° WSW 05:29:16 89° SSE 05:40:14 10° ENE visible
30 Apr 5.8 07:23:19 10° W 07:34:58 45° NNW 07:43:16 10° NE visible
30 Apr 6.4 22:00:54 10° SW 22:07:45 23° S 22:08:44 22° S visible
